BBB078 UKLU-EDDH

Flight info

Callsign BBB078
Flight time N/A
Altitude 38000
Route LASOT DCT BALOS L623 BAREX T205 VAGON T710 SUBIX/N0436F280 L867 RADEL L619 AMLUH DCT NOLGO NOLGO3P
Aircraft A21N/M-SDE3FGHIRWY/LB1

Departure

Time N/A
Airport Uzhhorod International Airport (UKLU)

Arrival

Time 2026-04-25 00:09
Airport Hamburg Helmut Schmidt Airport (EDDH)
Time Latitude Longitude Altitude Speed Heading
2026-04-24 23:24 51.82292 15.93030 38043 ft 406 kts 303°
2026-04-24 23:24 51.83864 15.89325 38037 ft 405 kts 303°
2026-04-24 23:25 51.87045 15.81818 38042 ft 405 kts 303°
2026-04-24 23:25 51.90239 15.74254 38047 ft 405 kts 303°
2026-04-24 23:26 51.93397 15.66760 38042 ft 405 kts 303°
2026-04-24 23:26 51.96559 15.59231 38037 ft 405 kts 303°
2026-04-24 23:27 51.99725 15.51670 38035 ft 405 kts 303°
2026-04-24 23:27 52.02877 15.44124 38032 ft 405 kts 303°
2026-04-24 23:28 52.06014 15.36591 38022 ft 405 kts 303°
2026-04-24 23:28 52.09146 15.29043 38026 ft 405 kts 303°
2026-04-24 23:29 52.12309 15.21408 38032 ft 406 kts 302°
2026-04-24 23:29 52.15431 15.13844 38027 ft 406 kts 302°
2026-04-24 23:30 52.18567 15.06222 38033 ft 406 kts 302°
2026-04-24 23:30 52.21688 14.98616 38030 ft 405 kts 302°
2026-04-24 23:31 52.24811 14.90980 38026 ft 406 kts 302°
2026-04-24 23:31 52.27919 14.83358 38030 ft 406 kts 302°
2026-04-24 23:32 52.31042 14.75682 38030 ft 407 kts 302°
2026-04-24 23:32 52.34162 14.67988 38027 ft 408 kts 302°
2026-04-24 23:33 52.37290 14.60244 38028 ft 408 kts 302°
2026-04-24 23:33 52.40407 14.52517 38030 ft 408 kts 302°
2026-04-24 23:34 52.43502 14.44830 38037 ft 408 kts 302°
2026-04-24 23:34 52.46625 14.37045 38039 ft 409 kts 302°
2026-04-24 23:35 52.49736 14.29265 38034 ft 409 kts 301°
2026-04-24 23:35 52.52826 14.21524 38035 ft 409 kts 301°
2026-04-24 23:36 52.55918 14.13748 38035 ft 409 kts 301°
2026-04-24 23:36 52.58596 14.05555 38039 ft 408 kts 290°
2026-04-24 23:37 52.60433 13.96781 38037 ft 408 kts 289°
2026-04-24 23:37 52.63330 13.83617 38030 ft 408 kts 296°
2026-04-24 23:38 52.66317 13.75738 38039 ft 409 kts 302°
2026-04-24 23:38 52.69451 13.67933 38040 ft 410 kts 302°
2026-04-24 23:39 52.72573 13.60115 38044 ft 410 kts 302°
2026-04-24 23:39 52.75691 13.52270 38039 ft 410 kts 302°
2026-04-24 23:40 52.78800 13.44413 38045 ft 410 kts 302°
2026-04-24 23:40 52.81902 13.36551 38038 ft 409 kts 302°
2026-04-24 23:41 52.84983 13.28712 38042 ft 409 kts 301°
2026-04-24 23:41 52.88075 13.20828 38046 ft 409 kts 301°
2026-04-24 23:42 52.91150 13.12955 38040 ft 409 kts 301°
2026-04-24 23:42 52.94217 13.05081 38042 ft 409 kts 301°
2026-04-24 23:43 52.97294 12.97158 38046 ft 409 kts 301°
2026-04-24 23:43 53.00369 12.89214 38050 ft 410 kts 301°
2026-04-24 23:44 53.03443 12.81248 38047 ft 410 kts 301°
2026-04-24 23:44 53.06488 12.73331 38052 ft 410 kts 301°
2026-04-24 23:45 53.09541 12.65364 38054 ft 410 kts 301°
2026-04-24 23:45 53.12604 12.57347 38052 ft 411 kts 301°
2026-04-24 23:46 53.15626 12.49422 37896 ft 402 kts 301°
2026-04-24 23:46 53.17115 12.45507 37289 ft 399 kts 301°
2026-04-24 23:46 53.18591 12.41621 36388 ft 402 kts 301°
2026-04-24 23:47 53.20076 12.37701 35616 ft 406 kts 301°
2026-04-24 23:47 53.21592 12.33688 34861 ft 408 kts 300°
2026-04-24 23:47 53.23087 12.29728 34085 ft 410 kts 300°
2026-04-24 23:47 53.24603 12.25707 33242 ft 412 kts 300°
2026-04-24 23:48 53.26123 12.21664 32318 ft 416 kts 301°
2026-04-24 23:48 53.27670 12.17547 31309 ft 420 kts 301°
2026-04-24 23:48 53.29222 12.13409 30282 ft 425 kts 301°
2026-04-24 23:48 53.30765 12.09291 29205 ft 429 kts 301°
2026-04-24 23:49 53.32358 12.05034 28206 ft 430 kts 301°
2026-04-24 23:49 53.33931 12.00825 27359 ft 428 kts 301°
2026-04-24 23:49 53.35491 11.96647 26602 ft 424 kts 301°
2026-04-24 23:49 53.37019 11.92546 25904 ft 420 kts 301°
2026-04-24 23:50 53.38564 11.88388 25190 ft 416 kts 301°
2026-04-24 23:50 53.40076 11.84311 24490 ft 413 kts 301°
2026-04-24 23:50 53.41571 11.80277 23830 ft 409 kts 301°
2026-04-24 23:50 53.43068 11.76229 23173 ft 406 kts 301°
2026-04-24 23:51 53.44525 11.72281 22547 ft 402 kts 301°
2026-04-24 23:51 53.45985 11.68316 21921 ft 398 kts 301°
2026-04-24 23:51 53.47427 11.64398 21299 ft 394 kts 302°
2026-04-24 23:51 53.48855 11.60510 20629 ft 392 kts 302°
2026-04-24 23:52 53.50279 11.56629 19947 ft 390 kts 302°
2026-04-24 23:52 53.51683 11.52797 19350 ft 385 kts 302°
2026-04-24 23:52 53.53067 11.49013 18792 ft 380 kts 302°
2026-04-24 23:52 53.54435 11.45266 18242 ft 375 kts 302°
2026-04-24 23:53 53.55774 11.41596 17706 ft 370 kts 302°
2026-04-24 23:53 53.57117 11.37906 17161 ft 366 kts 302°
2026-04-24 23:53 53.58420 11.34325 16631 ft 362 kts 302°
2026-04-24 23:53 53.59721 11.30741 16103 ft 358 kts 302°
2026-04-24 23:54 53.61014 11.27171 15576 ft 354 kts 302°
2026-04-24 23:54 53.62275 11.23690 15038 ft 351 kts 302°
2026-04-24 23:54 53.63535 11.20204 14506 ft 347 kts 302°
2026-04-24 23:54 53.64787 11.16737 13989 ft 344 kts 302°
2026-04-24 23:55 53.66016 11.13327 13470 ft 340 kts 302°
2026-04-24 23:55 53.67239 11.09933 12943 ft 337 kts 302°
2026-04-24 23:55 53.68445 11.06580 12428 ft 334 kts 302°
2026-04-24 23:55 53.69649 11.03229 11908 ft 331 kts 302°
2026-04-24 23:56 53.70825 10.99952 11387 ft 329 kts 302°
2026-04-24 23:56 53.72006 10.96653 10942 ft 323 kts 302°
2026-04-24 23:56 53.73139 10.93486 10723 ft 311 kts 302°
2026-04-24 23:56 53.74231 10.90428 10541 ft 298 kts 302°
2026-04-24 23:57 53.75271 10.87513 10365 ft 285 kts 302°
2026-04-24 23:57 53.76276 10.84691 10236 ft 272 kts 302°
2026-04-24 23:57 53.77225 10.82027 10065 ft 261 kts 302°
2026-04-24 23:57 53.78152 10.79420 9730 ft 258 kts 302°
2026-04-24 23:58 53.79075 10.76824 9353 ft 256 kts 302°
2026-04-24 23:58 53.79985 10.74259 8990 ft 254 kts 302°
2026-04-24 23:58 53.80887 10.71714 8632 ft 252 kts 302°
2026-04-24 23:58 53.81783 10.69182 8281 ft 250 kts 302°
2026-04-24 23:59 53.82679 10.66651 7928 ft 248 kts 302°
2026-04-24 23:59 53.83598 10.64240 7578 ft 245 kts 308°
2026-04-24 23:59 53.84737 10.62115 7234 ft 243 kts 317°
2026-04-24 23:59 53.86006 10.60266 6910 ft 240 kts 320°
2026-04-25 00:00 53.87294 10.58465 6563 ft 238 kts 320°
2026-04-25 00:00 53.88418 10.56465 6181 ft 237 kts 301°
2026-04-25 00:00 53.88816 10.53766 5816 ft 241 kts 272°
2026-04-25 00:00 53.88361 10.51040 5487 ft 248 kts 249°
2026-04-25 00:01 53.87412 10.48595 5146 ft 250 kts 241°
2026-04-25 00:01 53.86380 10.46215 4819 ft 248 kts 240°
2026-04-25 00:01 53.85348 10.43938 4497 ft 245 kts 239°
2026-04-25 00:01 53.84292 10.41697 4273 ft 238 kts 238°
2026-04-25 00:02 53.83273 10.39598 4200 ft 225 kts 238°
2026-04-25 00:02 53.82293 10.37613 4113 ft 213 kts 238°
2026-04-25 00:02 53.81362 10.35738 4020 ft 206 kts 238°
2026-04-25 00:02 53.80461 10.33933 3770 ft 199 kts 238°
2026-04-25 00:03 53.79580 10.32169 3478 ft 193 kts 238°
2026-04-25 00:03 53.78728 10.30466 3226 ft 185 kts 238°
2026-04-25 00:03 53.77911 10.28836 3003 ft 176 kts 238°
2026-04-25 00:03 53.77160 10.27345 2934 ft 158 kts 239°
2026-04-25 00:04 53.76474 10.25980 2921 ft 149 kts 240°
2026-04-25 00:04 53.75802 10.24620 2945 ft 150 kts 240°
2026-04-25 00:04 53.75137 10.23273 2953 ft 150 kts 240°
2026-04-25 00:04 53.74468 10.21921 2958 ft 150 kts 240°
2026-04-25 00:05 53.73807 10.20590 2958 ft 150 kts 240°
2026-04-25 00:05 53.73134 10.19235 2961 ft 149 kts 240°
2026-04-25 00:05 53.72463 10.17885 2832 ft 150 kts 240°
2026-04-25 00:05 53.71794 10.16540 2621 ft 148 kts 240°
2026-04-25 00:06 53.71131 10.15207 2419 ft 148 kts 241°
2026-04-25 00:06 53.70482 10.13899 2218 ft 146 kts 241°
2026-04-25 00:06 53.69833 10.12592 2033 ft 145 kts 241°
2026-04-25 00:06 53.69196 10.11313 1833 ft 136 kts 242°
2026-04-25 00:07 53.68605 10.10125 1628 ft 131 kts 242°
2026-04-25 00:07 53.68021 10.08935 1445 ft 132 kts 241°
2026-04-25 00:07 53.67440 10.07754 1278 ft 131 kts 239°
2026-04-25 00:07 53.66857 10.06575 1110 ft 130 kts 238°
2026-04-25 00:08 53.66255 10.05446 915 ft 132 kts 237°
2026-04-25 00:08 53.65671 10.04249 745 ft 129 kts 240°
2026-04-25 00:08 53.65132 10.03050 583 ft 130 kts 237°
2026-04-25 00:08 53.64535 10.01891 387 ft 130 kts 235°
2026-04-25 00:09 53.63960 10.00710 202 ft 128 kts 234°
2026-04-25 00:09 53.63393 9.99555 86 ft 123 kts 234°
2026-04-25 00:09 53.62915 9.98573 62 ft 88 kts 231°
2026-04-25 00:09 53.62631 9.98004 62 ft 39 kts 230°
2026-04-25 00:10 53.62521 9.97798 62 ft 16 kts 202°
2026-04-25 00:10 53.62429 9.97876 62 ft 16 kts 106°
2026-04-25 00:10 53.62445 9.98070 62 ft 17 kts 78°
2026-04-25 00:10 53.62470 9.98266 62 ft 17 kts 77°
2026-04-25 00:11 53.62495 9.98467 62 ft 17 kts 78°
2026-04-25 00:11 53.62510 9.98601 62 ft 17 kts 79°
2026-04-25 00:11 53.62540 9.98874 62 ft 18 kts 79°
2026-04-25 00:11 53.62563 9.99081 62 ft 18 kts 78°
2026-04-25 00:12 53.62587 9.99292 62 ft 18 kts 81°
2026-04-25 00:12 53.62609 9.99506 62 ft 18 kts 80°
2026-04-25 00:12 53.62632 9.99708 62 ft 15 kts 78°
2026-04-25 00:12 53.62682 9.99848 62 ft 14 kts 30°
2026-04-25 00:13 53.62773 9.99929 62 ft 15 kts 29°
2026-04-25 00:13 53.62862 10.00021 62 ft 15 kts 40°
2026-04-25 00:13 53.62947 10.00132 62 ft 15 kts 33°
2026-04-25 00:13 53.63035 10.00228 62 ft 12 kts 32°
2026-04-25 00:14 53.63083 10.00261 62 ft 5 kts
2026-04-25 00:14 53.63108 10.00289 62 ft 5 kts 76°
2026-04-25 00:14 53.63110 10.00341 62 ft 4 kts 87°
2026-04-25 00:14 53.63111 10.00367 62 ft 0 kts 87°